Wind_Speed
5 6 6 7 7 7 8 8 9 9 9 10 10 10 10 10 9 9 9 9 10 10 11 12 12 12 12 11 11 11 12 12 12 13 13 13 12 12 12 12 12 11 11 11 11 11 11 12 13 15 16 17 17 17 17 18 18 17 16 14 13 12 11 11 10 10 11 11 10
5 6 6 7 7 7 8 8 9 9 9 10 10 10 10 9 9 8 8 9 9 9 10 10 10 9 9 9 9 9 9 10 10 10 10 10 9 9 9 9 8 8 9 9 9 10 11 12 14 15 17 17 17 17 17 17 17 15 14 13 13 13 13 13 12 12 12 12 12
5 5 6 6 7 7 7 8 8 9 9 10 11 11 10 9 8 8 8 8 9 9 8 7 6 6 6 6 7 7 7 7 8 8 8 7 7 7 7 7 7 7 7 8 9 11 12 13 14 15 16 17 17 16 16 16 15 14 13 13 14 15 15 15 15 15 14 14 13
5 5 6 6 7 7 7 8 8 9 10 10 10 10 9 9 8 8 8 9 9 8 6 5 4 4 4 4 5 6 6 6 6 6 6 6 6 6 6 6 7 7 8 9 10 11 12 13 14 15 15 15 15 15 15 14 14 13 13 14 15 15 15 16 16 15 15 14 14
5 6 6 7 7 7 8 8 9 9 10 10 10 10 10 10 9 9 9 9 8 6 5 4 4 3 3 3 3 4 5 5 4 4 4 4 4 4 5 6 7 7 8 8 9 10 11 12 13 13 13 13 13 13 13 13 13 12 13 14 14 14 14 14 14 14 14 14 14
6 6 7 7 7 8 8 9 8 9 9 9 9 9 9 8 8 8 9 8 7 6 4 4 4 3 2 0 1 3 4 4 2 1 1 1 0 1 2 3 5 6 7 8 8 9 10 10 10 11 10 10 10 10 11 11 12 12 12 13 13 13 13 13 13 13 13 13 13
6 7 7 8 8 8 8 8 8 8 8 8 7 7 7 6 6 7 8 8 8 7 6 5 4 4 3 2 1 1 2 3 3 1 1 2 2 1 1 1 2 4 5 6 7 7 8 8 8 8 8 9 9 9 10 11 11 11 11 12 12 12 12 12 12 12 11 11 12
7 8 8 8 9 9 8 7 7 7 7 6 6 6 6 7 8 9 9 9 9 8 7 6 5 4 2 1 1 1 2 3 3 3 2 1 1 1 0 1 1 2 3 4 5 5 5 6 6 6 7 8 8 9 9 10 10 10 11 11 12 12 12 11 11 10 10 10 11
8 8 8 9 10 9 8 7 6 6 6 5 6 6 7 8 9 10 10 10 9 7 6 6 5 4 3 3 2 2 2 3 3 4 4 3 2 2 2 2 2 2 3 3 4 4 4 3 4 5 6 7 7 8 8 8 9 9 10 10 10 11 11 11 11 10 10 11 11
9 9 9 9 10 9 7 6 6 6 5 6 7 8 8 9 9 10 9 8 7 6 6 5 4 4 4 4 3 3 2 2 3 4 4 3 3 3 3 3 3 4 4 5 5 5 4 4 4 5 5 6 7 8 8 8 8 8 9 9 9 10 10 10 10 10 11 11 11
10 10 9 10 10 8 7 6 7 7 7 7 7 7 8 8 8 8 8 7 6 6 5 5 4 4 4 5 4 4 3 3 3 4 4 4 3 3 3 3 4 5 5 6 5 5 5 5 5 6 6 7 8 9 9 9 9 9 9 10 10 10 10 10 10 10 10 10 10
10 10 10 11 10 8 7 7 8 9 9 8 8 7 6 6 6 7 6 6 6 6 6 5 5 5 5 5 5 5 4 3 3 4 4 3 3 3 3 4 5 6 6 5 5 4 4 5 6 7 8 9 9 10 10 10 10 11 11 11 11 11 11 11 10 10 10 9 9
10 10 11 11 10 8 8 8 9 10 10 10 9 8 7 6 6 6 6 6 6 6 6 6 6 6 6 6 5 5 5 4 4 4 4 4 4 4 5 6 7 7 7 5 4 4 5 6 7 8 9 10 10 11 11 10 10 11 11 11 11 11 11 10 10 9 8 7 7
10 10 10 10 9 9 9 10 11 11 12 11 11 10 9 8 7 7 6 6 6 6 6 6 6 6 6 6 5 5 5 5 4 4 5 5 6 6 7 8 8 8 7 6 5 5 6 7 8 9 9 10 10 10 9 9 9 9 9 9 9 9 8 8 8 7 7 6 5
9 10 9 9 9 9 10 11 11 12 13 12 12 11 10 9 9 8 7 6 6 6 6 6 6 6 6 6 6 5 5 5 4 4 4 5 7 7 8 9 9 9 8 7 7 7 7 7 8 8 8 8 8 8 7 7 7 7 7 7 7 7 7 7 7 6 6 5 5
8 9 8 8 9 10 11 11 12 12 12 12 12 11 10 10 11 11 9 8 6 6 6 6 6 6 6 6 5 5 5 5 4 4 4 5 6 7 8 9 9 8 8 7 7 7 7 7 7 7 6 7 7 7 6 6 6 6 7 7 7 7 7 7 7 7 6 5 5
7 8 8 8 9 10 11 11 12 12 12 12 11 10 10 10 12 12 11 9 6 5 5 6 6 6 5 5 5 5 4 3 3 3 4 5 5 6 7 8 8 8 8 7 7 7 7 8 8 7 7 7 7 7 7 7 7 7 7 7 7 7 7 7 7 7 7 6 6
7 7 7 8 8 9 9 10 11 12 12 12 11 10 10 10 11 11 10 8 6 5 5 6 6 6 6 5 5 4 3 2 3 3 4 4 4 5 6 7 8 8 8 8 8 8 8 8 8 8 8 8 8 8 8 8 8 8 8 8 8 8 8 8 7 7 7 7 7
6 7 8 8 7 7 7 9 9 10 11 11 10 9 9 9 9 9 8 7 7 7 7 7 7 7 7 6 6 5 4 3 4 5 5 5 5 6 6 7 8 9 9 10 10 10 9 9 9 9 9 9 9 9 9 9 10 10 10 10 10 9 9 8 8 7 7 7 7
6 7 8 8 7 6 6 6 7 8 9 9 8 8 8 8 8 7 7 7 8 8 7 7 7 7 7 7 7 7 6 6 6 6 7 6 6 7 7 8 8 9 10 10 11 11 10 10 10 10 10 9 9 10 10 10 11 11 11 11 11 10 9 8 8 7 7 7 8
7 7 7 8 8 7 6 5 6 7 7 7 7 7 8 7 7 7 7 8 8 7 7 7 7 7 8 8 8 8 7 7 7 7 7 7 7 8 8 8 9 9 10 10 10 10 10 10 9 10 10 10 10 10 11 11 11 11 11 11 10 10 9 9 8 9 9 9 9
7 7 7 7 8 8 8 7 6 7 7 7 7 8 8 8 8 8 8 8 8 8 8 8 9 9 9 9 9 9 8 8 8 7 7 8 8 8 8 8 9 9 10 10 10 10 10 9 9 10 10 10 11 11 11 12 12 11 11 10 10 10 10 10 10 10 11 10 10
7 7 7 7 8 9 10 9 8 8 8 8 8 8 8 8 8 9 9 9 9 9 9 10 10 10 10 10 10 9 9 9 8 8 8 9 9 9 9 8 9 9 10 10 10 10 10 10 10 11 11 11 12 12 12 12 12 12 11 11 11 11 11 12 12 12 11 11 11
7 7 7 7 7 8 9 9 9 8 8 7 7 7 7 8 8 9 9 10 10 10 10 10 10 10 10 10 10 10 9 9 9 9 9 9 9 9 9 9 9 9 9 9 10 10 10 11 11 12 12 12 12 12 12 12 12 12 12 12 12 12 12 12 12 12 11 11 10
7 7 7 7 7 7 8 8 8 7 7 6 6 7 7 8 8 9 9 10 10 10 10 10 10 9 9 9 9 9 9 9 9 9 9 9 9 9 9 9 9 9 9 9 10 10 11 11 12 13 13 13 12 12 12 11 11 11 11 12 12 13 13 12 12 12 11 10 9
7 7 7 7 7 7 7 7 7 7 7 7 6 6 7 7 7 8 8 8 8 8 8 8 8 8 8 8 8 8 8 8 7 8 8 8 7 8 8 8 8 8 8 8 9 9 10 11 12 13 13 13 12 12 11 11 11 11 11 11 12 12 12 12 12 12 11 11 10
8 8 8 7 7 7 7 7 7 7 7 6 5 5 5 5 6 6 6 6 7 7 6 6 6 6 6 6 6 5 5 5 5 5 5 5 5 6 6 6 6 7 7 7 8 9 10 11 12 13 13 13 13 12 12 12 11 11 11 10 10 11 11 12 11 11 11 11 11
8 8 8 7 7 7 7 7 7 7 7 6 5 5 4 4 5 5 6 6 6 6 6 6 6 5 5 5 4 4 4 4 4 5 5 5 6 6 6 6 6 7 7 7 8 9 10 10 11 12 12 13 13 13 13 12 12 11 11 10 10 10 11 11 11 11 11 11 11
9 8 8 8 7 7 7 7 7 7 7 6 6 5 5 5 5 6 6 6 6 6 6 6 6 6 5 5 5 5 5 5 5 5 6 6 6 6 7 7 8 8 8 8 8 9 9 10 10 11 11 12 12 12 12 11 11 11 10 10 11 11 11 11 11 10 10 10 10
9 9 9 8 8 8 7 7 7 8 8 7 7 6 6 6 6 7 7 7 7 7 7 7 7 6 6 6 5 5 5 6 6 6 6 7 7 7 7 8 9 9 9 8 8 9 9 10 10 10 11 12 12 12 11 11 11 11 11 11 11 11 11 11 11 10 9 8 8
10 9 9 9 8 8 8 8 8 9 9 8 7 6 6 6 7 8 8 8 8 8 8 8 7 7 6 6 6 6 6 7 7 7 7 8 8 8 9 9 10 10 9 9 9 9 9 10 10 11 12 13 13 13 13 13 13 12 12 12 12 12 11 11 10 9 8 7 7
10 10 9 9 9 9 9 9 9 10 9 9 7 6 6 7 7 8 8 8 8 9 9 8 8 7 7 6 6 6 7 7 7 8 8 9 9 10 10 10 10 10 10 9 9 9 9 10 11 11 12 13 14 15 15 15 14 14 13 13 12 12 11 11 10 9 8 7 6
10 10 10 9 9 9 9 10 10 10 10 9 8 7 7 8 8 8 8 8 9 9 9 8 8 8 7 7 7 7 7 8 8 8 9 9 10 10 11 11 11 10 10 10 9 9 10 11 11 12 12 13 13 14 14 14 14 13 12 12 11 10 10 10 9 9 8 8 7
11 11 10 10 10 10 10 10 11 11 11 10 9 8 8 8 9 9 9 9 9 9 9 9 8 8 8 8 8 8 8 8 8 9 9 10 10 10 11 11 10 10 10 10 10 10 11 12 12 13 12 12 12 12 12 12 11 11 10 10 9 8 8 8 7 7 7 7 7
11 11 11 11 10 10 11 11 11 11 11 10 10 9 9 9 10 10 10 10 11 10 10 10 10 9 9 9 9 8 8 8 9 9 9 9 10 10 10 10 10 10 10 10 10 11 11 12 12 12 12 12 11 11 11 10 9 9 8 8 7 7 6 6 6 6 6 6 6
12 12 11 11 11 11 11 11 12 12 11 11 11 10 10 10 10 11 11 12 12 11 11 11 11 10 10 10 10 10 10 10 11 11 11 10 10 10 10 10 11 10 10 10 10 11 11 11 11 11 11 11 11 10 10 9 9 8 8 7 7 6 6 6 6 5 5 5 6
12 12 11 11 11 11 11 12 12 12 12 11 11 11 11 11 11 12 12 12 12 12 11 11 11 11 12 11 11 11 11 11 12 12 11 12 11 11 11 11 10 10 10 10 10 10 10 10 10 10 10 10 10 10 10 9 9 8 7 7 7 6 6 6 6 6 6 6 6
12 12 12 12 12 12 12 12 12 12 12 12 12 12 12 12 12 12 12 12 12 12 11 11 12 12 12 12 11 11 11 12 12 12 12 12 12 12 12 11 10 10 9 10 10 10 10 10 10 10 10 10 10 10 10 9 9 8 8 7 7 7 6 6 6 6 6 6 7
12 12 12 12 12 13 13 13 13 14 14 13 13 13 13 13 12 12 12 12 12 11 11 11 12 12 12 12 11 11 11 12 12 12 12 12 12 13 12 11 10 9 9 9 9 10 10 10 10 9 9 10 10 10 9 9 8 8 8 7 7 6 6 7 7 7 6 7 7
12 12 12 13 13 14 14 14 14 15 15 14 14 14 14 13 13 12 12 12 12 11 11 11 12 13 12 12 12 12 12 12 12 12 12 12 13 13 13 11 10 10 9 9 9 9 10 10 9 9 9 9 9 9 9 8 8 8 7 7 6 6 6 6 7 7 6 6 7
12 12 13 13 14 14 14 15 15 15 15 15 15 15 14 14 13 13 12 11 11 11 11 12 13 13 13 12 12 12 12 12 12 12 12 12 13 13 13 12 11 11 10 9 8 9 9 9 9 9 9 9 9 9 8 7 7 7 7 6 6 5 5 5 6 6 6 5 6
Wind_Direction
251 255 259 261 264 267 270 271 272 273 273 274 274 275 276 278 278 278 279 280 281 284 288 292 294 295 294 294 292 291 289 286 284 282 280 278 276 274 271 267 261 255 248 242 235 230 226 223 223 226 229 231 229 227 226 225 220 215 213 217 221 221 219 219 216 214 214 216 219
257 261 265 268 270 272 273 275 275 274 274 273 272 272 272 272 272 273 274 275 277 281 287 292 295 296 298 298 297 296 294 293 290 288 286 284 281 278 274 268 258 248 238 230 224 221 220 220 222 226 230 231 227 223 220 219 215 214 217 225 230 229 224 218 215 214 216 220 226
264 269 272 273 275 276 277 277 276 275 274 272 271 271 270 267 267 265 266 267 271 276 281 286 291 297 303 307 309 308 305 300 295 293 290 287 283 280 277 271 260 247 236 229 225 222 221 222 225 228 230 229 225 219 216 215 215 219 226 234 237 235 229 223 221 221 222 225 229
271 276 277 277 276 276 275 274 274 273 272 271 272 271 266 259 255 253 254 260 266 268 268 273 285 297 306 317 325 327 322 312 300 290 282 277 274 272 270 267 258 249 240 233 229 227 226 226 227 228 227 225 222 219 218 220 223 228 233 238 238 234 229 225 224 224 225 228 231
278 279 278 279 279 277 275 274 273 272 272 272 272 270 264 257 253 251 252 255 256 254 254 267 279 286 296 319 338 343 337 326 304 280 266 261 261 266 267 263 256 247 238 230 226 225 225 225 225 224 224 224 224 225 227 231 232 233 234 235 233 229 226 223 224 226 228 230 231
285 284 281 280 280 280 278 276 275 274 273 272 271 268 265 261 257 253 250 246 242 237 237 254 257 248 230 148 23 2 349 341 335 314 195 176 167 287 285 274 259 246 235 225 219 218 220 222 224 225 226 229 231 234 237 239 237 232 228 224 223 222 220 220 223 227 229 229 227
289 288 286 282 280 279 278 278 276 275 273 273 270 266 261 253 246 241 238 233 227 220 216 220 217 200 173 135 83 356 328 331 342 6 89 111 107 89 31 330 286 255 237 227 222 220 220 223 226 230 234 237 237 238 240 239 233 225 217 212 213 213 213 214 219 221 221 219 218
292 288 285 282 279 277 275 276 277 277 276 272 263 254 247 238 230 226 222 216 210 204 200 198 198 195 190 199 250 274 287 306 318 319 307 265 175 161 202 290 289 260 239 232 229 227 225 225 228 228 228 230 227 227 228 226 221 215 210 205 205 205 204 204 206 205 203 202 201
292 288 283 279 277 274 270 270 272 273 271 263 248 236 228 222 219 214 210 204 202 201 202 203 207 216 231 243 251 255 268 291 305 305 297 281 259 230 210 205 214 217 213 209 210 212 214 215 217 218 219 218 213 211 212 211 208 207 205 202 198 197 197 196 194 192 189 188 187
291 285 279 274 272 268 263 261 261 259 253 245 233 222 214 211 208 205 202 201 204 209 214 217 222 229 235 239 241 242 251 273 293 300 297 288 270 246 225 211 205 199 193 189 188 188 188 189 191 195 201 203 197 193 192 194 196 199 200 200 197 193 190 190 190 187 185 184 183
288 281 274 268 267 262 254 249 248 243 234 227 220 213 207 203 202 202 203 206 210 214 217 218 219 221 225 227 229 231 239 256 277 288 291 288 275 256 239 224 208 192 184 179 180 182 182 183 184 184 187 190 188 184 181 181 186 189 191 191 191 187 183 182 183 182 182 181 181
284 277 270 265 264 257 244 238 238 233 225 216 212 211 210 208 209 212 214 216 216 216 215 213 211 212 215 217 219 224 231 241 251 261 265 262 253 236 221 209 197 185 175 172 178 184 188 189 189 187 185 184 182 178 174 174 177 179 180 179 179 177 175 173 174 174 174 174 172
279 273 267 262 260 252 240 231 232 230 224 217 215 219 225 229 230 231 228 224 222 221 218 213 211 210 211 213 217 221 227 231 234 237 239 236 226 212 197 188 181 176 173 176 185 190 190 188 187 184 178 174 171 168 166 165 168 170 170 168 168 168 167 166 167 168 169 168 168
275 269 263 259 254 247 237 231 231 231 229 223 220 224 231 238 242 241 236 229 226 224 221 217 216 215 216 219 224 230 234 235 232 231 231 228 220 207 195 186 179 175 178 188 190 186 181 177 176 175 173 169 166 163 161 159 160 162 162 163 164 165 165 164 166 167 169 170 171
272 266 260 255 249 241 236 232 231 232 231 228 223 223 227 233 238 239 235 228 227 226 223 220 220 223 228 233 241 249 254 253 248 242 237 232 223 213 203 197 191 188 188 190 186 182 178 173 171 173 176 176 174 174 173 168 166 166 168 171 174 175 173 170 169 169 170 171 173
266 262 257 252 244 239 236 232 231 231 231 228 224 220 220 225 234 237 235 228 229 232 233 231 234 238 244 249 258 266 272 275 275 269 257 247 233 221 213 210 208 208 206 202 194 189 187 185 186 189 192 193 193 194 194 189 181 176 175 176 178 178 176 173 170 167 166 169 169
259 256 253 248 242 239 236 234 233 231 230 227 220 214 213 220 230 236 235 229 230 243 253 254 255 260 267 269 270 273 281 288 288 280 269 258 244 229 220 219 219 221 220 216 207 200 196 196 198 198 198 197 195 193 192 187 179 173 169 169 170 171 169 167 165 162 161 162 162
252 250 247 243 237 234 234 235 236 234 230 224 214 208 210 219 228 232 234 233 236 249 262 268 269 272 276 278 274 269 266 265 265 262 260 255 245 233 226 225 224 222 219 212 204 199 197 196 193 191 189 187 184 181 179 175 170 167 166 165 164 162 161 159 158 156 155 155 153
243 242 240 234 230 227 228 231 235 233 228 219 210 209 216 226 231 235 238 243 247 251 256 264 269 271 271 271 267 260 251 246 253 258 259 255 247 237 228 224 222 218 210 201 193 191 192 191 188 186 183 181 178 174 171 168 165 164 162 160 158 156 155 154 153 152 150 147 144
239 239 238 235 231 227 225 223 224 223 220 215 214 222 232 239 241 243 247 251 253 253 254 258 265 270 270 265 258 253 251 255 261 265 264 258 246 234 226 221 217 212 205 196 189 187 187 187 184 182 180 177 173 169 165 163 161 159 157 155 154 152 152 150 147 144 140 138 135
241 238 236 236 237 238 233 223 218 217 219 223 231 240 247 249 249 248 249 251 251 249 247 249 257 262 263 258 250 246 251 261 268 268 261 249 234 225 220 215 209 204 199 191 186 184 185 185 182 179 176 173 169 165 161 157 154 153 152 149 148 146 144 141 138 135 132 129 127
239 236 234 235 239 239 237 233 231 233 237 241 245 248 251 251 249 248 248 247 245 241 241 244 251 255 255 250 243 242 249 261 268 264 251 236 222 214 210 206 200 195 190 185 182 181 181 180 178 176 172 167 164 160 155 152 149 148 145 142 139 136 134 132 132 130 127 124 121
234 233 233 235 236 238 238 237 239 244 249 253 252 250 248 246 246 245 244 241 238 237 239 245 250 252 249 243 239 240 248 259 264 258 243 229 216 209 202 197 190 185 182 180 180 179 176 173 171 169 166 162 157 153 150 149 147 145 142 139 136 132 130 128 126 124 121 119 116
229 230 231 232 232 234 236 236 239 242 246 248 246 243 241 239 238 238 238 236 233 233 236 242 245 245 241 236 233 237 246 255 255 248 236 224 215 206 200 193 187 183 181 181 183 181 176 169 164 162 160 157 153 150 148 148 147 145 142 140 138 135 131 127 123 119 115 113 111
224 225 226 227 224 224 225 228 231 233 234 233 233 233 233 232 233 233 233 232 229 229 232 238 240 239 235 231 231 235 243 248 244 236 226 220 215 208 199 191 188 186 185 186 185 182 177 169 163 158 156 154 151 149 148 148 147 146 145 144 142 138 134 131 128 125 121 117 116
219 219 218 218 216 215 215 217 218 220 221 223 226 227 226 226 227 227 227 225 223 224 228 233 234 233 230 230 230 232 235 235 231 223 215 210 207 201 193 187 187 187 186 185 183 178 173 168 164 160 156 153 151 149 147 145 146 146 144 144 142 140 136 134 132 132 130 128 127
213 213 213 213 211 211 211 213 214 214 214 214 216 217 217 218 219 219 217 214 213 215 217 219 218 218 218 221 219 215 209 204 199 192 185 178 170 167 166 168 171 173 172 170 169 168 167 166 165 163 160 156 154 151 148 146 145 143 140 139 139 140 139 136 135 134 133 131 131
209 208 208 209 208 208 209 210 210 207 204 201 199 199 202 206 208 208 206 201 200 198 197 194 193 193 194 191 185 176 167 160 151 144 138 134 135 137 139 140 141 141 143 147 152 156 160 162 164 164 163 160 156 153 149 145 142 140 138 137 140 143 142 140 139 136 135 135 136
207 206 206 205 205 205 205 205 203 199 195 193 193 197 200 203 204 204 199 193 190 186 182 178 175 172 169 164 162 157 153 148 145 141 138 136 133 132 130 129 127 128 131 137 143 148 153 157 160 161 161 160 154 148 143 141 141 142 142 143 145 146 145 143 141 138 138 140 143
206 205 203 203 204 205 205 203 201 197 193 192 195 200 204 204 201 196 192 187 185 183 179 172 167 163 161 160 159 157 154 151 148 145 143 139 135 132 130 129 129 130 133 136 140 143 146 151 154 157 158 156 150 145 142 143 145 146 146 146 146 146 145 142 140 139 139 142 147
206 204 202 202 204 206 205 203 200 197 193 189 187 188 193 195 192 188 186 184 184 182 177 169 164 162 161 159 156 154 152 150 147 144 143 140 136 132 131 131 131 132 135 137 138 139 142 147 152 156 158 156 153 150 149 150 149 148 146 146 146 146 144 143 142 141 141 141 145
206 204 201 201 203 204 204 202 200 198 195 190 186 185 188 189 186 185 184 184 182 178 172 166 163 162 159 156 152 150 149 147 145 143 141 139 136 134 133 133 133 134 136 137 137 139 142 147 151 154 155 155 153 152 151 151 151 149 148 147 147 147 147 147 147 147 146 141 139
206 203 201 200 201 201 201 201 202 200 195 190 186 185 186 187 186 184 181 179 175 170 166 163 162 159 156 153 149 147 146 144 142 140 139 138 136 135 134 134 134 135 137 138 139 141 143 146 146 145 145 146 147 148 149 150 150 149 147 147 147 149 151 154 156 158 157 153 147
205 203 201 200 200 199 199 201 201 199 194 190 187 187 189 188 184 181 177 173 169 165 163 162 160 158 155 153 150 147 144 140 138 137 137 138 138 136 135 135 135 137 139 141 143 144 145 144 141 141 141 143 144 145 147 148 148 148 147 148 150 154 159 163 167 169 169 166 159
204 202 201 200 199 198 198 200 199 197 193 190 189 191 191 189 185 182 178 175 170 166 164 163 161 158 155 155 154 150 144 141 140 140 140 140 140 139 138 137 138 140 142 143 146 147 147 144 143 144 145 147 146 146 146 148 147 147 149 152 155 158 163 167 170 172 173 170 163
203 201 200 199 198 198 197 197 196 195 192 190 190 190 190 188 187 185 183 180 175 171 168 168 167 166 164 163 162 159 154 151 149 148 146 144 141 140 139 138 138 141 144 146 148 149 149 147 147 149 150 150 148 147 147 146 146 147 149 153 156 160 164 165 166 167 167 166 160
202 201 199 197 197 196 195 194 194 192 191 191 191 190 189 188 186 185 184 182 178 175 174 175 175 175 176 175 173 169 165 162 159 157 155 151 146 140 136 136 136 140 145 147 150 150 149 148 149 150 150 148 146 144 144 144 144 145 147 151 156 160 162 162 162 162 162 161 159
201 199 197 196 195 194 194 193 192 192 191 192 192 192 191 189 186 184 183 183 181 180 180 181 183 185 186 186 182 178 174 171 169 167 165 161 153 145 138 135 137 141 146 148 150 149 147 146 146 145 145 143 141 141 141 142 141 143 145 148 152 154 156 156 155 156 158 161 160
200 198 196 195 195 195 195 195 195 195 195 195 194 194 192 190 187 185 185 186 187 188 188 189 191 193 194 194 189 184 180 178 177 176 173 169 162 154 146 140 140 145 150 151 149 146 144 142 141 140 140 139 138 140 140 141 141 142 143 144 145 147 149 151 151 152 156 162 163
198 197 196 197 198 199 199 199 200 201 201 200 197 195 192 190 188 189 190 191 194 196 197 197 197 198 199 197 191 185 182 181 182 182 179 174 168 161 155 148 146 148 152 152 148 145 142 140 139 139 138 138 139 140 142 141 142 143 144 143 142 143 147 150 150 150 153 159 164
197 197 199 201 204 204 204 203 204 206 206 204 201 197 194 193 193 194 194 195 198 201 204 204 201 200 198 194 189 185 183 183 184 185 183 178 172 167 162 157 152 151 151 150 148 146 143 141 140 140 140 140 141 142 143 142 143 145 147 148 147 146 147 150 153 154 155 157 162
Height
822 822 821 821 821 821 821 820 820 820 820 820 820 820 819 819 819 819 818 818 817 817 816 815 815 814 814 814 813 813 812 812 811 811 810 810 810 810 809 809 809 809 809 809 809 809 809 809 810 810 810 810 811 811 811 812 812 812 813 813 814 814 815 816 816 816 817 817 818
821 821 821 820 820 820 820 820 819 819 819 819 819 819 819 819 818 818 818 817 817 816 815 815 814 814 814 813 812 812 811 811 810 810 809 809 809 809 809 809 808 808 808 808 808 809 809 809 809 809 809 809 810 810 810 811 811 812 812 813 813 814 814 815 815 815 816 816 816
820 820 820 820 820 819 819 819 819 819 819 818 818 818 818 818 818 817 817 816 816 815 815 814 814 814 813 813 812 811 811 810 810 809 809 809 809 808 808 808 808 808 808 808 808 808 808 808 808 808 808 809 809 809 810 810 811 811 811 812 812 813 813 814 814 814 814 815 815
819 819 819 819 819 819 819 819 819 818 818 817 817 817 817 817 817 816 816 816 815 815 814 814 814 813 813 812 812 811 811 810 809 809 809 809 808 808 808 808 808 807 807 807 807 807 807 807 807 807 808 808 809 809 809 809 810 810 811 811 812 812 812 812 813 813 813 814 814
819 819 819 819 818 818 818 818 818 817 817 817 816 816 816 816 816 815 815 815 814 814 814 814 813 813 813 812 812 811 811 810 809 809 809 809 808 808 808 808 807 807 807 807 807 807 807 807 807 807 807 808 808 808 809 809 809 809 810 810 811 811 811 812 812 812 813 813 814
818 818 818 818 818 818 817 817 817 816 816 816 815 815 815 815 815 814 814 814 814 814 814 814 813 813 812 812 811 811 811 810 810 809 809 809 808 808 808 808 807 807 807 807 806 806 806 807 807 807 807 807 808 808 808 808 808 809 809 809 810 810 811 811 811 812 812 813 813
817 817 817 817 817 817 817 816 816 816 815 815 815 814 814 814 814 814 814 814 814 814 813 813 813 813 812 812 811 811 811 811 810 809 809 809 809 808 808 808 807 807 807 806 806 806 806 806 806 806 807 807 807 807 808 808 808 808 809 809 809 810 810 811 811 811 812 812 812
816 816 816 816 816 816 816 815 815 815 815 814 814 814 814 814 813 813 813 813 813 813 813 813 813 812 812 812 811 811 811 810 810 810 809 809 808 808 808 808 808 807 807 806 806 806 806 806 806 806 806 806 807 807 807 808 808 808 808 809 809 809 810 810 811 811 811 812 812
815 815 815 815 815 815 815 815 815 814 814 814 814 813 813 813 813 813 813 813 813 813 813 813 812 812 812 811 811 811 811 810 810 810 809 809 809 808 808 808 807 807 807 806 806 806 806 806 806 806 806 806 807 807 807 807 808 808 808 809 809 809 809 810 810 811 811 812 812
815 815 815 815 814 814 814 814 814 814 814 814 813 813 813 813 813 813 813 813 813 813 813 812 812 812 812 811 811 811 810 810 810 809 809 809 809 808 808 807 807 807 807 806 806 806 806 806 806 806 806 806 807 807 807 807 807 808 808 809 809 809 809 809 810 810 811 811 812
814 814 814 814 814 814 814 814 814 814 814 813 813 813 813 813 813 812 812 812 812 812 812 812 812 812 811 811 811 811 810 810 809 809 809 809 808 808 808 807 807 807 807 807 806 806 806 806 806 806 806 806 807 807 807 807 807 808 808 809 809 809 809 809 810 810 811 812 812
813 813 813 813 813 813 813 813 813 813 813 813 813 813 813 812 812 812 812 812 812 812 812 812 812 811 811 811 811 810 810 810 809 809 809 809 808 808 808 807 807 807 807 807 807 807 806 806 806 806 806 806 806 807 807 807 807 808 808 808 809 809 809 809 810 810 811 812 813
813 812 812 812 812 813 813 813 813 813 812 812 812 812 812 812 812 812 812 812 812 812 811 811 811 811 811 811 811 810 810 809 809 809 809 809 808 808 808 807 807 807 807 807 807 807 806 806 806 806 806 806 807 807 808 808 808 808 808 808 809 809 809 809 810 811 811 812 813
812 812 811 812 812 812 812 812 812 812 812 812 812 812 812 812 812 812 812 812 811 811 811 811 811 811 811 810 810 810 810 809 809 809 809 809 808 808 808 807 807 807 807 807 807 807 807 807 807 807 807 807 807 808 808 808 808 809 809 809 809 809 809 810 810 811 812 812 813
811 811 811 811 811 811 811 811 811 811 811 811 811 811 811 811 811 811 811 811 811 811 811 811 811 810 810 810 810 810 810 809 809 809 809 808 808 808 808 807 807 807 807 807 807 807 807 807 807 807 807 807 808 808 808 809 809 809 809 809 809 810 810 810 811 811 812 812 812
810 810 810 810 810 810 810 810 810 810 810 810 810 810 811 811 811 811 811 811 811 811 811 811 810 810 810 810 810 810 809 809 809 809 808 808 808 808 808 807 807 807 807 806 807 807 807 807 807 807 807 807 808 808 808 809 809 809 809 809 809 810 810 810 811 811 812 812 812
810 810 810 810 810 810 810 810 810 809 809 810 810 810 810 810 810 810 810 811 811 811 811 810 810 810 810 810 809 809 809 809 809 809 808 808 808 807 807 807 807 807 807 806 806 806 807 807 807 807 807 807 808 808 808 808 809 809 809 809 809 810 810 810 811 811 811 812 812
809 809 809 809 809 809 809 809 809 809 809 809 809 809 809 809 809 810 810 810 810 810 810 810 810 810 810 810 809 809 809 809 809 809 808 808 807 807 807 807 807 806 806 806 806 806 806 807 807 807 807 807 807 808 808 808 808 809 809 809 809 809 810 810 811 811 811 812 812
809 809 809 809 809 809 809 809 808 808 808 809 809 809 809 809 809 809 809 809 809 809 810 810 810 810 809 809 809 809 809 809 809 808 808 807 807 807 807 806 806 806 806 806 806 806 806 807 807 807 807 807 807 807 808 808 808 808 809 809 809 810 810 810 811 811 811 812 812
809 808 808 808 808 808 808 808 808 808 808 808 808 808 808 808 809 809 809 809 809 809 809 809 809 809 809 809 809 809 808 808 808 807 807 807 806 806 806 806 806 806 806 806 806 806 806 806 807 807 807 807 807 807 808 808 808 808 809 809 809 810 810 810 811 811 812 812 812
808 808 808 808 808 808 808 808 808 808 808 808 808 808 808 808 808 808 808 808 808 808 809 809 809 809 809 808 808 808 808 807 807 807 806 806 806 806 806 806 806 806 806 806 806 806 806 807 807 807 807 807 807 808 808 808 808 809 809 809 809 810 810 811 811 812 812 812 813
807 807 807 807 807 807 807 807 807 807 807 807 808 808 808 808 807 808 808 808 808 808 808 808 808 808 808 808 808 807 807 807 806 806 806 806 806 806 806 805 805 805 806 806 806 806 806 807 807 807 807 807 808 808 808 808 809 809 809 810 810 810 811 811 812 812 812 813 813
806 807 807 807 807 807 807 807 807 807 807 807 807 807 807 807 807 807 807 807 807 807 807 807 807 807 807 807 807 807 806 806 806 805 805 805 805 805 805 805 805 805 805 806 806 806 806 807 807 807 807 808 808 808 809 809 809 809 810 810 811 811 812 812 812 813 813 814 814
806 806 806 806 806 806 806 806 807 807 807 807 807 807 807 807 806 806 806 807 807 807 807 806 806 806 806 806 806 806 806 806 805 805 805 805 805 805 805 805 805 805 805 806 806 806 806 806 807 807 807 808 808 809 809 809 809 809 810 810 811 811 812 812 813 813 814 814 815
805 805 806 806 806 806 806 806 806 806 806 806 806 806 806 806 806 806 806 806 806 806 806 806 806 806 806 806 806 806 805 805 805 805 805 805 805 805 805 805 805 805 805 805 805 806 806 806 807 807 808 808 808 809 809 809 810 810 811 811 811 812 812 813 813 814 814 815 815
804 805 805 805 805 805 805 806 806 806 806 806 805 805 806 806 806 806 806 806 806 806 806 806 806 806 806 806 805 805 805 805 805 805 805 805 805 805 805 805 805 805 805 805 805 806 806 806 807 807 808 808 809 809 809 810 810 811 811 812 812 813 813 814 814 814 815 815 815
804 804 804 805 805 805 805 805 805 805 805 805 805 805 805 805 806 806 806 805 805 805 805 806 806 806 806 806 805 805 805 805 805 805 805 805 805 805 805 805 805 805 805 805 806 806 806 807 807 807 807 808 808 809 809 810 810 811 812 813 813 814 814 814 814 815 815 815 816
804 804 804 804 804 804 804 804 804 805 805 805 805 805 805 805 805 806 806 805 805 805 806 806 806 806 806 806 806 806 805 805 806 806 806 806 806 806 806 806 806 806 806 806 806 806 807 807 807 807 808 808 808 809 809 810 811 812 812 813 814 814 814 814 815 815 815 816 816
803 803 803 804 804 804 804 804 804 804 804 805 805 805 805 805 805 805 805 805 805 806 806 806 806 806 806 806 806 806 806 806 806 806 806 806 806 806 806 806 806 806 806 806 807 807 807 807 808 808 808 808 809 809 810 811 812 812 813 813 814 814 814 814 815 815 816 816 816
802 802 803 803 803 804 804 804 804 804 804 804 805 805 805 805 805 805 805 805 805 805 806 806 806 806 806 806 806 806 806 806 807 807 807 807 807 807 807 807 807 807 807 807 807 807 808 808 808 808 809 809 809 810 811 811 812 813 813 813 814 814 814 815 815 816 816 817 817
801 802 802 802 803 803 803 803 803 804 804 804 804 804 804 805 805 805 805 805 805 805 805 806 806 806 806 806 807 807 807 807 807 807 807 807 807 807 807 807 808 808 808 808 808 808 808 808 809 809 809 809 810 810 811 811 812 813 813 814 814 814 814 815 815 816 817 817 817
801 801 801 802 802 802 803 803 803 803 803 804 804 804 804 804 805 805 805 805 805 805 806 806 806 806 807 807 807 807 807 807 807 807 808 808 808 808 808 808 808 809 809 809 809 809 809 809 809 809 809 810 810 810 811 811 812 813 813 813 814 814 814 815 816 816 817 817 818
800 800 801 801 801 802 802 802 802 803 803 803 804 804 804 804 805 805 805 805 805 806 806 806 806 807 807 807 807 807 808 808 808 808 808 808 808 808 809 809 809 809 809 809 809 809 809 809 809 810 810 810 811 811 812 812 812 813 813 814 814 814 815 815 816 816 816 817 818
799 800 800 800 801 801 801 802 802 802 803 803 803 804 804 804 804 805 805 805 805 806 806 806 806 807 807 807 808 808 808 808 808 808 809 809 809 809 809 809 809 810 810 810 810 810 810 810 810 811 811 811 812 812 813 813 813 813 814 814 814 814 815 815 816 816 816 817 817
799 799 799 800 800 800 801 801 801 802 802 803 803 803 804 804 804 805 805 805 805 806 806 806 806 807 807 808 808 808 808 808 808 809 809 809 809 809 810 810 810 810 810 810 810 810 810 811 811 811 812 812 812 813 813 813 814 814 814 814 815 815 815 815 816 816 816 817 817
798 798 799 799 799 800 800 800 801 801 802 802 803 803 804 804 804 804 805 805 805 806 806 806 806 807 807 807 808 808 808 808 808 809 809 809 810 810 810 810 810 811 811 811 811 811 811 811 812 812 812 812 813 813 813 814 814 814 814 815 815 815 816 816 816 816 816 817 817
797 798 798 799 799 799 800 800 800 801 801 802 802 803 803 804 804 804 805 805 805 806 806 806 806 807 807 807 808 808 808 809 809 809 809 809 810 810 810 811 811 811 811 811 811 812 812 812 812 812 813 813 813 813 813 814 814 814 815 815 815 816 816 816 816 816 817 817 817
796 797 797 798 798 799 799 799 800 800 801 801 802 802 803 804 804 804 805 805 805 806 806 806 806 807 807 808 808 809 809 809 809 809 810 810 810 810 811 811 811 812 812 812 812 812 812 812 813 813 813 813 813 813 814 814 814 815 815 816 816 816 816 816 816 817 817 817 817
795 796 796 797 798 798 799 799 799 800 800 801 801 802 803 803 804 804 805 805 805 806 806 806 806 807 807 808 809 809 809 809 810 810 810 810 811 811 811 812 812 812 812 812 813 813 813 813 813 813 813 813 814 814 814 815 815 816 816 816 816 816 817 817 817 817 817 817 818
795 795 796 796 797 797 798 798 799 799 800 800 801 802 802 803 804 804 804 805 805 806 806 806 806 807 807 808 809 809 809 810 810 810 810 811 811 811 812 812 812 813 813 813 813 813 813 813 813 813 814 814 814 814 815 815 816 816 816 817 817 817 817 817 817 818 818 818 818
794 794 795 796 796 797 797 798 798 799 799 800 800 801 802 802 803 804 804 804 805 805 805 806 806 807 807 808 809 809 809 810 810 810 811 811 811 812 812 812 813 813 813 813 813 813 813 813 813 814 814 814 814 815 815 816 816 816 817 817 817 817 817 818 818 818 818 818 819